www.pogodaiklimat.ru

Погода и климат >> Архив погоды >> Мексика >> Chilpancingo


ПОГОДА в Chilpancingo

  • Прогноз погоды в Chilpancingo
  • Монитор погоды в Chilpancingo
  • Климат города

АРХИВ ПОГОДЫ в Chilpancingo

Время (UTC), дата Ветер
(напр.,м/с)
 
Видим.   Явления Облачность Т
(С)
Тd
(С)
f
(%)
Тe
(С)
Тes
(С)
Комфортность P
(гПа)
Po
(гПа)
Тmin
(С)
Tmax
(С)
R
(мм)
R24
(мм)
S
(см)
03 13.02 ЮВ 1 400 м 4/3 400 м
[Cu Sc Cs]
+21.4 +18.3 83 +26 +26 душно 1011.4 878.0
06 13.02 ЮВ 1 400 м 4/1 100 м
[Sc Cs]
+19.6 +18.2 92 +23 +23 комфорт 1013.6 879.2 +14.2 +31.6
09 13.02 З 1 400 м 1/1 360 м
[Cu Sc]
+17.6 +14.6 83 +19 +19 1014.6 878.9
15 13.02 СВ 3 400 м ясно +19.2 +13.7 70 +21 +25 комфорт 1019.5 881.2
18 13.02 З 1 400 м ясно +28.2 +15.9 47 +31 +50 душно 1018.4 880.8 +15.9 +31.6
21 13.02 Ю 1 400 м 3/3 1470 м
[Cu med, cong]
+31.4 +16.4 41 +35 +43 очень
душно
1013.3 877.7
00 14.02 В 4 400 м 8/8 1000 м
[Cu med, cong]
+26.8 +18.5 60 +32 +32 очень
душно
1011.6 877.5 +15.9 +31.4
03 14.02 штиль 0 400 м ясно +22.2 +17.3 74 +27 +27 душно 1013.0 879.4
06 14.02 штиль 0 400 м ясно +19.5 +16.1 81 +21 +21 комфорт 1015.2 880.6 +15.9 +31.4
09 14.02 Ю 2 400 м ясно +17.0 +13.6 80 +17 +17 1017.0 880.9
12 14.02 штиль 0 400 м ясно +15.7 +11.7 77 +16 +16 1018.6 880.9 +14.0 +31.4
15 14.02 ЮВ 3 400 м ясно +18.9 +12.2 65 +20 +24 1020.3 881.7
18 14.02 СЗ 4 400 м ясно +27.1 +15.5 49 +30 +41 душно 1019.3 881.3 +15.0 +29.3
21 14.02 С 5 400 м 6/6 1500 м
[Sc diur, vesp]
+30.4 +16.2 42 +33 +36 душно 1013.6 877.7
00 15.02 В 1 400 м 6/6 1500 м
[Sc diur, vesp]
+27.8 +15.4 47 +31 +31 душно 1011.0 876.8 +15.0 +32.4
03 15.02 СЗ 1 400 м ясно +21.6 +14.8 65 +25 +25 комфорт 1012.3 878.7
06 15.02 СВ 1 400 м ясно +19.2 +14.2 73 +22 +22 комфорт 1014.2 879.7 +15.0 +32.4
09 15.02 СВ 1 400 м ясно +15.6 +11.1 75 +16 +16 1016.0 879.9
12 15.02 С 1 400 м ясно +13.6 +8.5 71 +14 +14 1018.3 880.4 +13.2 +32.4
15 15.02 СЗ 3 400 м 3/3 960 м
[Sc]
+18.0 +10.1 60 +18 +21 1020.4 881.4
18 15.02 СЗ 2 400 м ясно +27.1 +14.0 45 +29 +46 жарко 1019.2 880.9 +13.2 +27.2
21 15.02 ЮВ 3 400 м 1/1 2000 м
[Cu med, cong]
+30.0 +13.3 36 +31 +39 жарко 1012.7 876.5
00 16.02 ЮВ 6 400 м ясно +29.3 +13.0 37 +31 +31 жарко 1009.4 875.3 +13.2 +31.6
03 16.02 ЮВ 3 400 м ясно +21.7 +12.5 56 +24 +24 комфорт 1011.3 877.7
06 16.02 В 1 400 м ясно +18.8 +11.8 64 +21 +21 комфорт 1012.9 878.5 +13.2 +31.6
09 16.02 В 3 400 м ясно +17.3 +10.4 64 +17 +17 1016.3 878.2
12 16.02 штиль 0 400 м ясно +14.4 +10.2 76 +14 +14 1016.0 878.4 +14.3 +31.6
15 16.02 СЗ 1 400 м 1/0
[Ci fib]
+16.4 +7.6 56 +17 +23 1018.5 879.7
18 16.02 ЮВ 1 400 м 3/1 2000 м
[Cu med, cong Ci fib]
+28.8 +11.1 33 +29 +46 жарко 1016.2 878.5 +12.9 +29.2
21 16.02 ЮВ 6 400 м 3/1 2000 м
[Sc diur, vesp Ci fib]
+30.9 +11.4 30 +31 +35 жарко 1010.1 874.6
00 17.02 В 7 400 м 1/0
[Ci fib]
+26.7 +13.1 43 +28 +29 жарко 1008.4 874.5 +12.9 +31.5
06 17.02 Ю 4 400 м 3/0
[Cs]
+19.0 +14.8 77 +20 +20 1011.6 877.5 +12.9 +31.5
15 17.02 С 2 400 м мгла 4/0 1500 м
[Ac cuf]
+18.2 +12.3 68 +19 +23 1017.4 879.1
18 17.02 Ю 2 400 м мгла 4/3 1200 м
[Cu hum Ci]
+28.4 +13.3 39 +30 +41 жарко 1015.8 878.5 +15.8 +28.5
21 17.02 ЮВ 3 400 м мгла 4/1 1260 м
[Cu hum Ac cuf]
+31.4 +12.3 31 +32 +38 жарко 1010.4 875.1
00 18.02 СВ 4 400 м мгла 1/1 600 м
[Cu hum]
+25.0 +15.1 54 +28 +28 жарко 1009.0 875.1 +15.8 +32.2
09 18.02 В 2 400 м 4/0
[Cs]
+17.2 +12.2 72 +18 +18 1013.0 877.0
12 18.02 СВ 1 400 м 4/0
[Cs]
+16.0 +11.9 77 +17 +17 1014.8 877.4 +15.8 +32.2
15 18.02 В 1 400 м 6/3 700 м
[Sc diur, vesp Ac cuf]
+18.6 +13.1 70 +20 +23 1016.3 878.2
18 18.02 В 4 400 м 9/5 1260 м
[Sc diur, vesp Ac cuf]
+25.6 +14.4 50 +28 +31 жарко 1015.1 877.6 +16.0 +25.7
21 18.02 Ю 7 400 м дым 4/4 1260 м
[Sc diur, vesp]
+28.6 +13.5 39 +30 +32 жарко 1010.6 874.7
00 19.02 С 6 400 м мгла 3/1 1000 м
[Cu hum Ac cuf]
+24.0 +13.2 51 +26 +26 жарко 1009.4 874.7 +16.0 +29.4
03 19.02 ЮВ 4 400 м ясно +20.7 +11.9 57 +23 +23 комфорт 1010.5 876.2
06 19.02 В 2 400 м 1/0 2000 м
[Ac und]
+18.2 +11.6 65 +19 +19 1011.5 876.6 +16.0 +29.4
09 19.02 В 1 400 м 6/6 1000 м
[Cu med, cong]
+18.2 +12.4 69 +20 +20 1012.4 876.3
12 19.02 ЮВ 1 400 м 8/8 870 м
[Cu med, cong]
+17.8 +10.8 64 +19 +19 1013.3 876.3 +11.2 +29.4
15 19.02 Ю 1 400 м 6/6 1020 м
[Sc diur, vesp]
+20.4 +12.0 59 +23 +26 комфорт 1015.7 878.0
18 19.02 Ю 1 400 м 5/4 1500 м
[Sc diur, vesp Ci]
+27.8 +12.1 38 +29 +40 жарко 1013.1 876.6 +16.2 +29.4
21 19.02 Ю 1 400 м 3/3 1440 м
[Sc diur, vesp]
+30.0 +11.6 32 +31 +40 жарко 1008.5 873.9
00 20.02 ЮВ 1 400 м 4/3 1440 м
[Sc diur, vesp Ci]
+25.0 +13.3 48 +27 +27 жарко 1008.3 874.5 +16.2 +31.2

 

Местоположение метеостанции Chilpancingo (Мексика): широта 17.55 долгота -99.50 высота над уровнем моря 1265 м.

В архиве по умолчанию представлена погода в Chilpancingo за последнюю неделю. Архивные данные за месяц целиком и за предыдущие месяцы, начиная с января 2011 года, Вы можете получить, выбрав интересующий диапазон дат из раскрывающегося списка и нажав кнопку "Ввод!".

Внимание! Время в таблицах - всемирное. Для получения местного времени необходимо прибавить поправку, которая в Chilpancingo равна -6 ч.

Смотрите также архив погоды в соседних городах и на ближайших метеорологических станциях:

Погода в Acapulco (Мексика) (92 км)
Погода в Zacatepec (Мексика) (133 км)
Погода в Cuernavaca (Мексика) (151 км)
Погода в Huajuapan De Leon (Мексика) (185 км)
Погода в Toluca (Мексика) (193 км)
Погода в Institute of Geography (Мексика) (200 км)
Погода в Mexico City (Мексика) (209 км)
Погода в Puebla (Мексика) (219 км)
Погода в Tlaxcala Airport (Мексика) (237 км)
Погода в Tlaxcala (Мексика) (237 км)

Пояснения к столбцам:

Ветер - указаны скорость ветра в м/с - средняя за 10 мин, порывы в срок и между сроками (в фигурных скобках) и направление, откуда дует ветер: С - северный, СВ - северо-восточный, В - восточный, ЮВ - юго-восточный, Ю - южный, ЮЗ - юго-западный, З - западный, СЗ - северо-западный.
Видимость - горизонтальная дальность видимости в метрах или километрах. При видимости от 1 до 10 км при отсутствии осадков обычно наблюдается дымка, при ухудшении видимости до 1 км и менее - туман. В сухую погоду видимость может ухудшаться дымом, пылью или мглою.
Явления - указаны атмосферные явления, наблюдавшиеся в срок или в последний час перед сроком; фигурными скобками обозначены явления, наблюдавшиеся между сроками (за 1-3 часа до срока); квадратными скобками обозначены град или гололедные отложения с указанием их диаметра в мм.
Облачность - указаны через наклонную черту общая и нижняя облачность в баллах и высота нижней границы облаков в метрах; квадратными скобками обозначены формы облаков: Ci - перистые, Cs - перисто-слоистые, Cc - перисто-кучевые, Ac - высококучевые, As - высокослоистые, Sc - слоисто-кучевые, Ns - слоисто-дождевые, Cu - кучевые, Cb - кучево-дождевые. Подробнее классификацию облаков см. в Атласе облаков (PDF).
T - Температура воздуха - температура, измеренная на высоте 2 м над землей.
Td - Температура точки росы - температура, при понижении до которой содержащийся в воздухе водяной пар достигнет насыщения.
f - Относительная влажность воздуха - влажноcть воздуха, измеренная на высоте 2 м над землей.
Te - Эффективная температура - температура, которую ощущает одетый по сезону человек в тени. Характеристика душности погоды. При расчете учитывается влияние влажности воздуха и скорости ветра на теплоощущения человека.
Tes - Эффективная температура на солнце - температура, которую ощущает человек, с поправкой на солнечный нагрев. Характеристика знойности погоды. Зависит от высоты солнца над горизонтом, облачности и скорости ветра. Ночью, в пасмурную погоду, а также при ветре 12 м/с и более поправка равна нулю.
P - Атмосферное давление - приведенное к уровню моря атмосферное давление.
Po - Атмосферное давление - измеренное на уровне метеостанции атмосферное давление.
Tmin - Минимальная температура - минимум температуры воздуха на высоте 2 м над землей.
Tmax - Максимальная температура - максимум температуры воздуха на высоте 2 м над землей.
R - Количество осадков - Количество выпавших осадков за период времени, мм. При наведении курсора мыши на число - период времени, за который выпало указанное количество осадков.
R24 - Количество осадков - Количество выпавших осадков за 24 часа, мм.
S - Снежный покров - Высота снежного покрова, см. При наведении курсора мыши на число - состояние снежного покрова и степень покрытия местности в баллах.